Location: Luz Observatory
(34.5000°N, 117.2833°W)
Time: 12:06:10
(UTC-07:00)

Daily predictions for brighter satellites

Satellite Brightness Start Highest point End
(mag) Time Altitude Azimuth Time Altitude Azimuth Time Altitude Azimuth
USA 238 DEB 4.3 18:53:29 10° SW 19:00:30 68° WNW 19:07:31 10° NNE
USA 238 4.2 18:53:34 10° SW 19:00:36 68° WNW 19:07:38 10° NNE
Atlas Centaur 2 3.4 18:54:35 10° W 19:03:05 65° S 19:10:58 10° ESE
SL-19 R/B 4.4 18:58:06 10° SSE 19:03:33 61° ENE 19:09:15 10° N
Cosmos 1844 4.1 19:00:15 10° NNW 19:05:49 71° WSW 19:11:19 10° SSE
ALOS 4.0 19:06:13 10° E 19:08:37 14° ENE 19:11:02 10° NE
Cosmos 1437 3.3 19:06:07 10° N 19:09:11 37° E 19:12:14 10° SSE
ASTRO E2 3.3 19:06:05 10° WSW 19:09:58 45° S 19:13:51 10° E
FREGAT/IRIS 3.6 19:07:34 10° SE 19:10:17 28° ENE 19:12:59 10° NNE
Cosmos 1766 3.7 19:08:01 10° SSE 19:11:43 40° E 19:15:27 10° NNE
Cosmos 1844 Rocket 4.1 19:09:05 10° NW 19:14:19 42° WSW 19:19:32 10° S
Spot 2 Rocket 4.1 19:13:26 10° SE 19:17:58 35° ENE 19:22:31 10° N
Cosmos 2237 Rocket 3.4 19:13:51 10° SW 19:19:18 47° WNW 19:24:47 10° N
OAO 3 Rocket 3.2 19:14:40 10° WSW 19:19:25 76° SSE 19:23:54 12° E
NOAA 12 4.1 19:16:14 10° SSE 19:21:23 60° ENE 19:26:34 10° N
Helios 1A 3.8 19:18:57 10° SE 19:22:34 29° ENE 19:26:14 10° N
Cosmos 2056 Rocket 3.7 19:17:57 10° N 19:23:17 54° ENE 19:28:34 10° SSE
Cosmos 2346 Rocket 4.4 19:17:17 10° N 19:23:22 81° E 19:29:24 10° S
COSMO-SKYMED 1 4.0 19:19:57 10° N 19:24:02 42° WNW 19:28:07 10° SW
SAR-Lupe-1 4.0 19:23:13 10° SSE 19:26:46 85° ENE 19:30:20 10° N
Cosmos 1953 3.2 19:25:05 10° SSE 19:28:30 28° E 19:31:56 10° NNE
ATLAS CENTAUR R/B 3.2 19:26:37 10° SW 19:30:46 90° ENE 19:43:37 10° NE
ATLAS 5 CENTAUR R/B 1.9 19:26:22 10° S 19:30:53 50° ESE 19:35:42 10° NE
CZ-4C R/B 3.9 19:27:03 10° WSW 19:31:47 33° NW 19:37:01 10° NNE
Aureole 2 Rocket 3.0 19:27:40 10° SSW 19:32:03 86° WNW 19:36:26 10° NNE
NOSS 3-2 (C) 3.4 19:26:39 10° SSW 19:32:35 71° ESE 19:39:00 10° NE
Cosmos 1371 Rocket 4.1 19:27:30 10° NNW 19:32:50 88° WSW 19:38:10 10° SSE
ASTEX 1 4.5 19:29:46 10° NE 19:33:33 22° E 19:37:19 10° SE
CENTAUR R/B 3.7 19:32:43 10° SE 19:36:10 16° ESE 19:36:16 16° ESE
SL-16 R/B 2.4 19:32:13 10° SSW 19:37:52 80° WNW 19:43:36 10° NNE
HJ-1C 3.3 19:40:39 10° SSE 19:43:57 62° ENE 19:47:17 10° N
Cosmos 1805 3.5 19:41:21 10° SSE 19:45:05 45° E 19:48:51 10° NNE
Cosmos 2034 Rocket 4.0 19:39:32 10° S 19:45:37 60° E 19:51:49 10° NNE
Cosmos 1766 Rocket 3.8 19:41:29 10° N 19:45:41 44° E 19:49:49 10° SSE
H-2A R/B 3.9 19:47:27 24° E 19:47:45 24° ENE 19:50:56 10° NNE
Cosmos 1464 Rocket 4.0 19:42:29 10° S 19:48:46 87° E 19:55:00 10° N
Cosmos 1624 Rocket 4.2 19:45:34 10° NNW 19:50:46 75° WSW 19:55:56 10° S
Meteor 1-29 2.9 19:49:11 10° NNE 19:52:42 85° ESE 19:56:11 10° S
Cosmos 724 4.3 19:48:57 10° SSW 19:54:42 60° ESE 20:00:38 10° NE
SL-8 R/B 4.1 19:50:53 10° SSW 19:55:22 42° SE 19:57:10 29° E
Cosmos 1378 3.6 19:55:31 10° NNW 19:59:12 60° W 20:02:51 10° S
Cosmos 1544 3.3 19:56:19 10° SSE 19:59:51 44° E 20:03:26 10° NNE
SJ-6B 4.4 19:57:17 10° SSW 20:00:55 37° W 20:04:38 10° NNW
METEOR-M 4.4 19:59:19 10° S 20:04:38 71° WSW 20:09:59 10° NNW
Abrixas 3.9 20:02:14 10° SSW 20:03:58 27° S 20:03:58 27° S
Cosmos 2278 Rocket 3.9 20:01:52 10° NW 20:06:50 32° WSW 20:11:47 10° SSW
Cosmos 1076 Rocket 3.6 20:03:09 10° N 20:07:28 78° W 20:11:48 10° S
Cosmos-2242 2.9 20:03:15 10° S 20:07:35 82° E 20:11:58 10° N
Cosmos 1758 3.4 20:05:11 10° S 20:09:15 81° W 20:13:21 10° N
Cosmos 2297 4.0 20:05:14 10° NNW 20:10:51 67° WSW 20:16:25 10° S
FENGYUN 3A 3.6 20:07:09 17° SSE 20:11:15 64° ENE 20:16:35 10° N
USA 215 4.2 20:06:14 10° NNE 20:12:22 45° NW 20:18:29 10° WSW
Timation 1 Rocket 4.2 20:07:20 10° NNW 20:13:19 87° ENE 20:17:41 19° SSE
ISS -0.7 20:10:50 10° S 20:11:02 11° S 20:11:02 11° S
Helios 1B rocket 3.7 20:10:25 10° N 20:14:18 42° WNW 20:18:10 10° SW
Cosmos 1452 Rocket 3.4 20:14:49 10° NNW 20:20:05 76° ENE 20:22:15 36° SSE
Cosmos 1408 Rocket 4.0 20:16:59 10° NNW 20:21:16 60° W 20:25:31 10° S
CZ-4B DEB 3.1 20:21:56 60° NNW 20:21:56 60° NNW 20:24:42 10° NNW
OAO 1 Rocket 4.4 20:16:16 10° W 20:21:39 88° S 20:23:07 49° E
Resurs 01 Rocket 2.7 20:17:39 10° S 20:21:54 45° W 20:26:12 10° NNW
SeaSat 1 2.3 20:19:00 10° NNE 20:23:57 79° ESE 20:28:53 10° SSW
Cosmos 1603 3.7 20:19:13 10° SSW 20:24:56 87° WNW 20:30:43 10° NNE
Resurs 1-3 4.3 20:21:20 10° S 20:25:37 54° W 20:29:57 10° NNW
Cosmos 2369 Rocket 3.7 20:22:17 10° N 20:25:24 20° NE 20:25:24 20° NE
SEDSat Delta rocket 4.0 20:21:48 10° W 20:28:33 69° S 20:30:30 47° ESE
GPS 2-04 Rocket1 4.3 20:35:15 10° SW 20:36:51 24° SW 20:36:51 24° SW
ATLAS CENTAUR R/B 3.8 20:36:21 10° WNW 20:39:11 19° WSW 20:41:34 11° SSW
Cosmos 1420 Rocket 4.0 20:38:47 10° NNW 20:43:36 64° NE 20:43:36 64° NE
ALOS 3.0 20:43:08 25° SSW 20:45:35 50° W 20:50:08 10° NNW
Cosmos 1743 Rocket 3.9 20:43:45 10° NNW 20:47:53 65° WNW 20:47:53 65° WNW
BREEZE-M DEB (TANK) 4.0 20:33:53 10° NW 20:50:11 59° SW 20:51:56 42° S
ASTRO E2 4.2 20:46:27 10° W 20:48:52 32° WSW 20:48:52 32° WSW
Atlas Centaur 2 3.5 20:44:48 10° W 20:52:32 42° SSW 20:54:17 37° S
Cosmos 1048 Rocket 4.5 20:54:22 10° SSW 20:59:36 59° WNW 21:04:49 10° N
OAO 3 Rocket 4.0 20:58:11 10° W 21:01:43 49° W 21:01:43 49° W
Cosmos 2142 Rocket 4.5 21:07:48 77° SW 21:08:17 83° W 21:14:43 10° N
Cosmos 1092 Rocket 4.1 21:03:20 10° NNW 21:09:30 69° W 21:10:19 62° SW
ATLAS 5 CENTAUR R/B 4.3 21:12:28 10° W 21:15:53 19° NW 21:19:29 10° N
Cosmos 1634 Rocket 4.3 21:18:19 52° SW 21:19:34 62° W 21:25:45 10° N
CENTAUR R/B 3.3 21:19:58 10° SW 21:34:47 - NNE 21:23:41 40° SW
Cosmos 2369 Rocket 4.4 22:05:24 10° NW 22:07:12 20° NW 22:07:12 20° NW
